Find Starlink 5909

NORAD ID: 55938 Int'l Des: 2023-037 Owner: SPXS Country: US Constellation: starlink operational
LEOCIRCULAR

Live-Position

3D-Globus wird geladen...

Über Starlink 5909

Beschreibung wird geladen...

Nächste Überflüge

Passes for default location (London). Set your location on the main map for personalized predictions.

Höhenverlauf

Loading altitude history...

Zweizeiliger Elementsatz

1 55938U 23037AA 26106.63559533 .00000533 00000-0 52478-4 0 9990
2 55938 70.0004 188.8009 0003311 270.2292 89.8488 14.98328864169665
Epoch: 16. Apr. 2026 • Age: 19 hours

Aktueller Status

Höhe 594.1 km
Geschwindigkeit 7.56 km/s
Subsatellitenpunkt -65.35°S, 63.16°E
Startdatum 17. März 2023
Alter 3 years
Typ internet

Technische Details

Klassifizierung Payload
Masse 305.00 kg
Trockenmasse 290.00 kg
Gesamtmasse 305.00 kg
Länge 0.20 m
Durchmesser 2.80 m
Spannweite 9.00 m
Form Box + pan
Hersteller SPXS
Bus-Typ Starlink
Phasenstatus In Orbit
Besitzer/Staat SPXS/US

Most Searched